| time (UTC) | temp C | wind direction | speed KPH | gust KPH | rain 1hr cm | rain 24hr cm | rain mn cm | humidity % | barometer mb |
| 20260903160003 | 26 | 37 | 0.0 | 1.6 | 0.00 | 0.05 | 0.00 | 100 | 1010.7 |
| 20260903151505 | 26 | 6 | 0.0 | 0.0 | 0.00 | 0.05 | 0.00 | 100 | 1010.7 |
| 20260903150004 | 26 | 343 | 4.8 | 8.0 | 0.00 | 0.05 | 0.00 | 100 | 1010.9 |
| 20260903144503 | 26 | 0 | 3.2 | 8.0 | 0.00 | 0.05 | 0.05 | 100 | 1011.2 |
| 20260903143005 | 25 | 340 | 3.2 | 4.8 | 0.00 | 0.05 | 0.05 | 100 | 1011.4 |
| 20260903141506 | 26 | 349 | 4.8 | 6.4 | 0.00 | 0.05 | 0.05 | 100 | 1011.3 |
| 20260903140003 | 26 | 347 | 3.2 | 4.8 | 0.00 | 0.05 | 0.05 | 100 | 1011.7 |
| 20260903134504 | 26 | 15 | 0.0 | 0.0 | 0.00 | 0.05 | 0.05 | 100 | 1011.7 |
| 20260903133006 | 26 | 15 | 0.0 | 0.0 | 0.00 | 0.05 | 0.05 | 100 | 1012.1 |
| 20260903131507 | 26 | 15 | 0.0 | 0.0 | 0.00 | 0.05 | 0.05 | 100 | 1012.5 |
| 20260903130007 | 26 | 15 | 0.0 | 0.0 | 0.00 | 0.05 | 0.05 | 100 | 1013.0 |
| 20260903124508 | 26 | 15 | 0.0 | 0.0 | 0.00 | 0.05 | 0.05 | 100 | 1013.2 |
| 20260903123003 | 26 | 15 | 0.0 | 0.0 | 0.00 | 0.05 | 0.05 | 100 | 1013.4 |
| 20260903120008 | 26 | 13 | 1.6 | 1.6 | 0.00 | 0.05 | 0.05 | 97 | 1013.5 |
| 20260903113005 | 26 | 13 | 0.0 | 0.0 | 0.00 | 0.05 | 0.05 | 93 | 1013.7 |
| 20260903111502 | 26 | 15 | 0.0 | 0.0 | 0.00 | 0.05 | 0.05 | 88 | 1013.5 |
| 20260903104504 | 26 | 6 | 1.6 | 3.2 | 0.00 | 0.05 | 0.05 | 80 | 1013.1 |
| 20260903103003 | 26 | 125 | 3.2 | 4.8 | 0.00 | 0.05 | 0.05 | 77 | 1012.8 |
| 20260903101505 | 26 | 82 | 1.6 | 3.2 | 0.00 | 0.05 | 0.05 | 69 | 1012.7 |
| 20260903100002 | 26 | 107 | 3.2 | 4.8 | 0.00 | 0.05 | 0.05 | 67 | 1012.7 |
| 20260903094503 | 26 | 62 | 6.4 | 14.5 | 0.00 | 0.05 | 0.05 | 66 | 1012.5 |
| 20260903093008 | 26 | 150 | 4.8 | 9.7 | 0.00 | 0.05 | 0.05 | 67 | 1012.5 |
| 20260903091503 | 26 | 44 | 8.0 | 14.5 | 0.00 | 0.05 | 0.05 | 67 | 1012.5 |
| 20260903090009 | 26 | 141 | 9.7 | 16.1 | 0.00 | 0.05 | 0.05 | 69 | 1012.7 |
| 20260903084504 | 27 | 44 | 6.4 | 11.3 | 0.00 | 0.05 | 0.05 | 73 | 1012.7 |
| 20260903083002 | 27 | 70 | 8.0 | 14.5 | 0.00 | 0.05 | 0.05 | 78 | 1012.7 |
| 20260903081504 | 27 | 96 | 8.0 | 16.1 | 0.00 | 0.05 | 0.05 | 81 | 1012.8 |
| 20260903080005 | 27 | 359 | 6.4 | 11.3 | 0.00 | 0.05 | 0.05 | 91 | 1012.9 |
| 20260903074508 | 28 | 73 | 8.0 | 16.1 | 0.00 | 0.05 | 0.05 | 100 | 1012.3 |
| 20260903073004 | 28 | 53 | 8.0 | 14.5 | 0.00 | 0.05 | 0.05 | 100 | 1012.3 |
| 20260903070006 | 28 | 148 | 3.2 | 6.4 | 0.00 | 0.05 | 0.05 | 100 | 1011.6 |
| 20260903064507 | 29 | 352 | 1.6 | 4.8 | 0.00 | 0.05 | 0.05 | 100 | 1012.9 |
| 20260903063002 | 29 | 17 | 1.6 | 6.4 | 0.00 | 0.05 | 0.05 | 100 | 1011.7 |
| 20260903061504 | 29 | 342 | 1.6 | 11.3 | 0.00 | 0.05 | 0.05 | 100 | 1012.5 |
| 20260903060005 | 29 | 4 | 1.6 | 4.8 | 0.00 | 0.03 | 0.03 | 100 | 1011.5 |
| 20260903054506 | 29 | 347 | 0.0 | 0.0 | 0.00 | 0.03 | 0.03 | 100 | 1011.2 |
| 20260903053019 | 29 | 13 | 1.6 | 3.2 | 0.00 | 0.03 | 0.03 | 100 | 1011.7 |
| 20260903051508 | 30 | 359 | 1.6 | 8.0 | 0.00 | 0.00 | 0.00 | 100 | 1011.6 |
| 20260903044506 | 30 | 349 | 8.0 | 12.9 | 0.00 | 0.00 | 0.00 | 100 | 1012.1 |
| 20260903043008 | 30 | 6 | 3.2 | 4.8 | 0.00 | 0.00 | 0.00 | 100 | 1012.0 |
| 20260903041517 | 30 | 359 | 1.6 | 4.8 | 0.00 | 0.00 | 0.00 | 100 | 1012.2 |
| 20260903040008 | 29 | 342 | 3.2 | 6.4 | 0.00 | 0.00 | 0.00 | 100 | 1012.4 |
| 20260903030007 | 29 | 32 | 4.8 | 11.3 | 0.00 | 0.00 | 0.00 | 100 | 1012.4 |
| 20260903024509 | 29 | 359 | 3.2 | 12.9 | 0.00 | 0.00 | 0.00 | 100 | 1012.3 |
| 20260903023003 | 28 | 359 | 3.2 | 12.9 | 0.00 | 0.00 | 0.00 | 100 | 1012.3 |
| 20260903021505 | 28 | 4 | 3.2 | 14.5 | 0.00 | 0.00 | 0.00 | 100 | 1012.5 |
| 20260903020006 | 28 | 359 | 6.4 | 12.9 | 0.00 | 0.00 | 0.00 | 100 | 1012.4 |
| 20260903011502 | 28 | 359 | 1.6 | 8.0 | 0.00 | 0.00 | 0.00 | 100 | 1012.6 |
| 20260903010004 | 28 | 359 | 3.2 | 9.7 | 0.00 | 0.00 | 0.00 | 100 | 1012.7 |
| 20260903004503 | 28 | 359 | 1.6 | 9.7 | 0.00 | 0.00 | 0.00 | 100 | 1012.8 |
| 20260903000004 | 27 | 359 | 4.8 | 11.3 | 0.00 | 0.00 | 0.00 | 100 | 1013.1 |
| 20260902234505 | 27 | 349 | 1.6 | 11.3 | 0.00 | 0.00 | 0.00 | 100 | 1013.2 |
| 20260902233003 | 27 | 342 | 4.8 | 12.9 | 0.00 | 0.00 | 0.00 | 100 | 1013.1 |
| 20260902230002 | 27 | 359 | 1.6 | 8.0 | 0.00 | 0.00 | 0.00 | 100 | 1013.1 |
| 20260902224504 | 27 | 345 | 3.2 | 9.7 | 0.00 | 0.00 | 0.00 | 100 | 1013.2 |
| 20260902223006 | 26 | 359 | 3.2 | 11.3 | 0.00 | 0.00 | 0.00 | 100 | 1013.3 |
| 20260902221504 | 26 | 353 | 4.8 | 12.9 | 0.00 | 0.00 | 0.00 | 100 | 1013.1 |
| 20260902220017 | 26 | 339 | 3.2 | 9.7 | 0.00 | 0.00 | 0.00 | 100 | 1013.0 |
| 20260902214503 | 26 | 359 | 1.6 | 8.0 | 0.00 | 0.00 | 0.00 | 100 | 1012.8 |
| 20260902211503 | 26 | 359 | 0.0 | 0.0 | 0.00 | 0.00 | 0.00 | 100 | 1013.3 |
| 20260902210004 | 26 | 14 | 1.6 | 3.2 | 0.00 | 0.00 | 0.00 | 100 | 1013.2 |
| 20260902204506 | 26 | 359 | 1.6 | 4.8 | 0.00 | 0.00 | 0.00 | 100 | 1013.0 |
| 20260902203002 | 26 | 357 | 1.6 | 4.8 | 0.00 | 0.00 | 0.00 | 100 | 1013.0 |
| 20260902201505 | 26 | 336 | 0.0 | 0.0 | 0.00 | 0.00 | 0.00 | 100 | 1013.3 |
| 20260902200006 | 26 | 336 | 0.0 | 0.0 | 0.00 | 0.00 | 0.00 | 100 | 1013.4 |
| 20260902194504 | 26 | 0 | 1.6 | 3.2 | 0.00 | 0.00 | 0.00 | 100 | 1013.3 |
| 20260902193007 | 26 | 359 | 0.0 | 0.0 | 0.00 | 0.00 | 0.00 | 100 | 1013.4 |
| 20260902190003 | 26 | 354 | 1.6 | 3.2 | 0.00 | 0.00 | 0.00 | 100 | 1013.6 |
| 20260902184506 | 26 | 1 | 3.2 | 4.8 | 0.00 | 0.00 | 0.00 | 100 | 1013.6 |
| 20260902183003 | 26 | 336 | 1.6 | 1.6 | 0.00 | 0.00 | 0.00 | 100 | 1013.5 |
| 20260902181505 | 26 | 336 | 0.0 | 0.0 | 0.00 | 0.00 | 0.00 | 100 | 1013.8 |
| 20260902180020 | 26 | 359 | 0.0 | 1.6 | 0.00 | 0.00 | 0.00 | 100 | 1013.9 |
| 20260902174519 | 27 | 350 | 0.0 | 0.0 | 0.00 | 0.00 | 0.00 | 100 | 1014.0 |
| 20260902173005 | 27 | 333 | 0.0 | 0.0 | 0.00 | 0.00 | 0.00 | 100 | 1014.1 |
| 20260902171506 | 27 | 333 | 0.0 | 0.0 | 0.00 | 0.00 | 0.00 | 100 | 1014.3 |
| 20260902170003 | 26 | 333 | 0.0 | 0.0 | 0.00 | 0.00 | 0.00 | 100 | 1014.4 |
| 20260902164504 | 26 | 346 | 0.0 | 0.0 | 0.00 | 0.00 | 0.00 | 100 | 1014.3 |
| 20260902163007 | 26 | 322 | 0.0 | 0.0 | 0.00 | 0.00 | 0.00 | 100 | 1014.2 |